User: anonymous   Login
Location: Campo Alegre
(10.4289°N, 66.6519°W)
Time: 11:34:34
(UTC+00:00)
Language:

Cosmos 1515 - Orbit

View from above orbital plane
View from above orbital plane
View from above satellite
View from above satellite

Ground track
Ground track

The orbit data is extracted from the following two-line orbital elements,

1 14551U 83122A   24200.80622756  .00029000  00000-0  75218-3 0  9993
2 14551  82.4927 117.5755 0001429 244.9964 115.1132 15.38858086963021
Epoch (UTC): 18 July 2024 19:20:58
Eccentricity: 0.0001429
inclination: 82.4927°
perigee height: 448 km
apogee height: 450 km
right ascension of ascending node: 117.5755°
argument of perigee: 244.9964°
revolutions per day: 15.38858086
mean anomaly at epoch: 115.1132°
orbit number at epoch: 96302

The dashed part of the orbit path shows where the satellite is in the earth's shadow,  

DLR